Location: Winnipeg
(49.8830°N, 97.1670°W)
Time: 05:15:00
(UTC-05:00)

Envisat - Pass Details

Date: 09 March 2024
Orbit: 762 x 764 km, 98.3° (Epoch: 21 April)

Event Time Altitude Azimuth Distance (km) Brightness Sun altitude
Rises 05:58:09 0° 1° (N) 3,243 6.3 -9.8°
Reaches altitude 10° 06:01:34 10° 337° (NNW) 2,311 5.3 -9.2°
Maximum altitude 06:04:03 14° 307° (NW) 2,051 4.8 -8.8°
Drops below altitude 10° 06:06:32 10° 278° (W) 2,304 4.8 -8.4°
Enters shadow 06:06:34 10° 278° (W) 2,310 4.8 -8.4°
